Regional Weather Roundup
Issued by NWS

Home | Current Version | Previous Version | Graphics & Text | Print | Product List | Glossary On
Versions: 1 2 3 4 5 6 7 8 9 10 11 12 13 14 15 16 17 18 19 20 21 22 23 24 25 26 27 28 29 30 31 32 33 34 35 36 37 38 39 40 41 42 43 44 45 46 47 48 49 50
000
ASUS45 KBOI 270310
RWRID
WEATHER ROUNDUP FOR IDAHO
NATIONAL WEATHER SERVICE BOISE ID
800 PM MST THU FEB 26 2015

NOTE: "FAIR" INDICATES FEW OR NO CLOUDS BELOW 12000 FEET
WITH NO SIGNIFICANT WEATHER AND/OR OBSTRUCTIONS TO VISIBILITY

IDZ012-014-270400-
SOUTHWEST IDAHO


CITY           SKY/WX    TMP DP  RH WIND       PRES   REMARKS
BOISE          CLOUDY    42  35  76 NW3       29.93F
CALDWELL       CLOUDY    45  28  53 W7        29.95F
$$

IDZ016-017-270400-
SOUTHCENTRAL IDAHO


CITY           SKY/WX    TMP DP  RH WIND       PRES   REMARKS
BURLEY         CLOUDY    35  30  82 SW8       29.91S WCI  29
JEROME         PTCLDY    32  29  88 SE8       29.92S WCI  25
TWIN FALLS     PTCLDY    35  30  82 S9        29.92S WCI  28
$$

IDZ019>023-270400-
SOUTHEAST IDAHO


CITY           SKY/WX    TMP DP  RH WIND       PRES   REMARKS
IDAHO FALLS    CLOUDY    29   9  43 N5        29.92S WCI  24
POCATELLO      CLOUDY    37  19  48 SW7       29.92F WCI  32
REXBURG        PTCLDY    28  10  46 N7        29.92S WCI  21
$$

IDZ006-010-011-018-031-032-270400-
CENTRAL IDAHO MOUNTAINS


CITY           SKY/WX    TMP DP  RH WIND       PRES   REMARKS
MCCALL         CLOUDY    30  27  88 N3        29.89S
HAILEY         MOCLDY    30  30 100 CALM      29.91S FOG
STANLEY          N/A     29  18  63 W3        29.86F
SALMON         PTCLDY    34  18  51 N3        29.91F
CHALLIS        MOCLDY    31  19  61 NW8       29.88S WCI  23
$$

IDZ002-004-006-007-026-270400-
NORTHERN IDAHO


CITY           SKY/WX    TMP DP  RH WIND       PRES   REMARKS
LEWISTON       CLOUDY    42  38  85 SE3       29.97F
LOWELL           N/A     40  33  76 CALM      29.99F
COEUR D`ALENE  CLOUDY    37  28  70 NE5       29.96S WCI  34
MULLAN PASS    CLOUDY    24  17  74 SE6       29.87F WCI  17
$$


USA.gov is the U.S. government's official web portal to all federal, state and local government web resources and services.